Location: Agus-us
(14.2247°N, 120.8593°E)
Time: 08:17:03
(UTC+00:00)

SL-16 R/B - Pass Details

Date: 13 December 2025
Orbit: 984 x 1007 km, 99.8° (Epoch: 16 January)

Event Time Altitude Azimuth Distance (km) Brightness Sun altitude
Rises 20:23:16 0° 179° (S) 3,718 5.8 -25.4°
Reaches altitude 10° 20:25:49 10° 184° (S) 2,771 5.0 -24.9°
Maximum altitude 20:31:48 49° 258° (WSW) 1,267 2.7 -23.5°
Enters shadow 20:32:40 46° 282° (WNW) 1,316 2.7 -23.3°
